Regional Weather Roundup
Issued by NWS

Home | Current Version | Previous Version | Graphics & Text | Print | Product List | Glossary On
Versions: 1 2 3 4 5 6 7 8 9 10 11 12 13 14 15 16 17 18 19 20 21 22 23 24 25 26 27 28 29 30 31 32 33 34 35 36 37 38 39 40 41 42 43 44 45 46 47 48 49 50
000
ASUS43 KBIS 251110
RWRND

NORTH DAKOTA REGIONAL WEATHER ROUNDUP
NATIONAL WEATHER SERVICE BISMARCK ND
500 AM CST THU DEC 25 2014

NOTE: "FAIR" INDICATES FEW OR NO CLOUDS BELOW 12,000 FEET WITH NO
SIGNIFICANT WEATHER AND/OR OBSTRUCTIONS TO VISIBILITY.


NDZ001>003-009>011-017-251200-
NORTHWEST NORTH DAKOTA

CITY           SKY/WX    TMP DP  RH WIND       PRES   REMARKS
WILLISTON      CLOUDY    27  23  85 NW9       29.65R WCI  18
MINOT          CLOUDY    28  23  81 NW16G24   29.58R WCI  16
MINOT AFB      CLOUDY    28  27  99 NW18      29.58R WCI  15
$$

NDZ018>021-031>035-040>046-251200-
SOUTHWEST NORTH DAKOTA

CITY           SKY/WX    TMP DP  RH WIND       PRES   REMARKS
BISMARCK       MOCLDY    24  21  88 W6        29.60R WCI  17
DICKINSON      MOCLDY    25  21  85 NW10      29.58R WCI  15
GARRISON         N/A     22  19  89 NW9       29.58R WCI  12
HETTINGER ARPT CLOUDY    29  25  85 N6        29.58R
$$

NDZ004>008-012>016-024-026-027-054-251200-
NORTHEAST NORTH DAKOTA

CITY           SKY/WX    TMP DP  RH WIND       PRES   REMARKS
GRAND FORKS    CLOUDY    29  26  89 NW7       29.54R
GRND FRKS AFB  CLOUDY    29  29  99 NW9       29.54R
DEVILS LAKE    CLOUDY    21  16  79 W9        29.54R WCI  11
$$

NDZ022-023-025-028>030-036>039-047>053-251200-
SOUTHEAST NORTH DAKOTA

CITY           SKY/WX    TMP DP  RH WIND       PRES   REMARKS
FARGO          CLOUDY    27  24  89 SW7       29.56R WCI  19
JAMESTOWN      CLOUDY    24  21  88 NW10      29.55R WCI  14
$$




USA.gov is the U.S. government's official web portal to all federal, state and local government web resources and services.